Location: Bronnegerveen
(52.9548°N, 6.8388°E)
Time: 02:07:39
(UTC+00:00)

Cosmos 1666 - Pass Details

Date: 15 June 2025
Orbit: 127 x 149 km, 82.4° (Epoch: 15 June)

Event Time Altitude Azimuth Distance (km) Brightness Sun altitude
Exits shadow 01:50:32 - 148° (SSE) 1,046 4.0 -8.1°
Reaches altitude 10° 01:51:39 10° 122° (ESE) 704 3.4 -8.0°
Maximum altitude 01:52:22 12° 93° (E) 624 3.5 -8.0°
Drops below altitude 10° 01:53:06 10° 64° (ENE) 711 4.4 -7.9°
Sets 01:55:14 0° 28° (NNE) 1,459 7.5 -7.7°
